Regional Weather Roundup
Issued by NWS

Home | Current Version | Previous Version | Text Only | Print | Product List | Glossary Off
Versions: 1 2 3 4 5 6 7 8 9 10 11 12 13 14 15 16 17 18 19 20 21 22 23 24 25 26 27 28 29 30 31 32 33 34 35 36 37 38 39 40 41 42 43 44 45 46 47 48 49 50

000
ASUS45 KBOU 280407
RWRCO

WEATHER ROUNDUP FOR COLORADO
NATIONAL WEATHER SERVICE DENVER/BOULDER CO
900 PM MST FRI FEB 27 2015

NOTE: "FAIR" INDICATES FEW OR NO CLOUDS BELOW 12000 FEET WITH NO
SIGNIFICANT WEATHER AND/OR OBSTRUCTIONS TO VISIBILITY.

COZ001>005-013-030-031-280500-
...NORTHWEST COLORADO...

CITY           SKY/WX    TMP DP  RH WIND       PRES   REMARKS
CRAIG            N/A     20  11  68 MISG      29.77R
HAYDEN         PTCLDY    19   9  63 E10       29.76R WCI   8
MEEKER         PTCLDY    13   8  81 CALM      29.76R
MOUNT WERNER   NOT AVBL
STEAMBOAT SPGS PTCLDY    16   8  70 N5        29.76S WCI   9
WALDEN         MOCLDY     1  -6  71 SE12      29.75R WCI -15
$$

COZ006>008-011-280500-
...WEST CENTRAL VALLEYS...

CITY           SKY/WX    TMP DP  RH WIND       PRES   REMARKS
GRAND JUNCTION CLEAR     30  25  81 E10       29.77R WCI  21
MONTROSE       CLEAR     23  19  85 S6        29.79S WCI  16
EAGLE          CLOUDY    27  21  80 E3        29.80R
RIFLE          PTCLDY    27  22  81 SE8       29.77S WCI  19
DELTA          PTCLDY    31  29  93 N3        29.79S
NUCLA          MOCLDY    30  25  80 E5        29.79S WCI  25
$$

COZ017>023-064>068-280500-
...SOUTHWEST COLORADO...

CITY           SKY/WX    TMP DP  RH WIND       PRES   REMARKS
DURANGO        LGT SNOW  25  24  96 NE5       29.79S FOG     WCI  19
CORTEZ         CLOUDY    30  29  96 CALM      29.77F
PAGOSA SPRINGS LGT SNOW  26  26  98 S5        29.78S WCI  21
TELLURIDE      CLOUDY    22  20  90 CALM      29.75R
WOLF CREEK PAS LGT SNOW  10   9  92 SW10      29.75R VSB 1   WCI  -3
$$

COZ009-010-012-014-032>034-037-058>063-280500-
...CENTRAL COLORADO...

CITY           SKY/WX    TMP DP  RH WIND       PRES   REMARKS
ASPEN          MOCLDY    16  10  77 SW8       29.74S WCI   5
BUENA VISTA    PTCLDY     3  -1  83 SW3       29.78R
COPPER MTN     LGT SNOW  12   5  73 MISG      29.68S
BERTHOUD PASS  FLURRIES   1  -4  78 NW7       29.68R WCI -11
COTTONWOOD PAS PTCLDY    18  12  79 CALM      29.72S
GUNNISON       PTCLDY    18   7  62 CALM      29.78R
KREMMLING      CLOUDY    19  10  68 E5        29.78R WCI  13
LEADVILLE      MOCLDY     3  -1  83 N5        29.71R WCI  -6
SALIDA         CLOUDY    12   8  84 SE12      29.88R WCI  -2
SUNLIGHT       LGT SNOW  14  10  85 CALM        N/A
WILKERSON PASS CLOUDY    10   7  85 SW9       29.71S WCI  -2
$$

COZ069>075-280500-
...SAN LUIS VALLEY/SANGRE DE CRISTO MOUNTAINS...

CITY           SKY/WX    TMP DP  RH WIND       PRES   REMARKS
ALAMOSA        MOCLDY    18  13  80 SW8       29.79R WCI   8
LA VETA PASS   LGT SNOW  16  12  86 MISG      29.74R
SAGUACHE       CLOUDY    23  19  86 CALM      29.79R
$$

COZ035-036-038>040-280500-
...NORTHERN COLORADO FRONT RANGE...

CITY           SKY/WX    TMP DP  RH WIND       PRES   REMARKS
DENVER INTL AP MOCLDY     8   2  76 SW6       29.92R WCI  -2
DMNS CITY PARK   N/A     11   6  81 NE1       29.93S
AURORA         MOCLDY    10   5  80 SE3       29.92R
FRONT RANGE AP NOT AVBL
ERIE MUNI ARPT MOCLDY     5   2  88 S3        29.95R
BOULDER MUN AP MOCLDY    10   9  92 S3        29.93S
CENTENNIAL     CLOUDY    10   3  73 S6        29.90R WCI   0
BROOMFIELD     MOCLDY     9   1  72 W3        29.91S
FORT COLLINS   PTCLDY    12   5  73 CALM      29.95S
LONGMONT       PTCLDY     7   3  82 SW5       29.96S WCI  -2
$$

COZ041-046-047-076>085-087-088-280500-
...PIKES PEAK/PALMER DIVIDE AND SOUTHERN FOOTHILLS...

CITY           SKY/WX    TMP DP  RH WIND       PRES   REMARKS
COLO. SPRINGS  LGT SNOW   7   4  87 SE9       29.91F FOG     WCI  -7
A. F. ACADEMY  CLOUDY     5   1  85 S5        29.87F WCI  -4
ELLICOTT       NOT AVBL
FALCON         LGT SNOW   3   0  85 CALM      29.87F
FORT CARSON    LGT SNOW   8   5  88 E9        29.92F VSB 1   WCI  -5
LIMON          CLOUDY     6   3  87 S16       29.99R FOG     WCI -12
MONUMENT HILL  PTCLDY     1   0  92 S10       29.82F WCI -14
TRINIDAD       PTCLDY    10   5  80 NW8       29.92S WCI  -2
$$

COZ042>045-048>051-090-091-280500-
...NORTHEAST COLORADO...

CITY           SKY/WX    TMP DP  RH WIND       PRES   REMARKS
GREELEY ARPT   PTCLDY    10   1  67 E7        29.96S WCI   0
AKRON          CLOUDY     8   5  87 S14       30.02S WCI  -8
BURLINGTON     CLOUDY    10   5  80 S16       30.11S WCI  -7
WRAY           CLOUDY    12   8  85 S8        30.15S WCI   0
STERLING       PTCLDY    12   7  79 S10       30.06S WCI  -1
HOLYOKE        NOT AVBL
FORT MORGAN    PTCLDY     9   4  81 SE12G17   30.02S WCI  -6
$$

COZ086-089-092>099-280500-
...SOUTHEAST COLORADO...

CITY           SKY/WX    TMP DP  RH WIND       PRES   REMARKS
PUEBLO         LGT SNOW  13   9  84 E12       30.00S FOG     WCI  -1
LA JUNTA       MOCLDY    11   6  81 E13       30.04S WCI  -4
LAMAR          CLOUDY    12   8  84 SE13      30.11S WCI  -3
SPRINGFIELD      N/A     11   8  88 S21       30.07S WCI  -8
$$


USA.gov is the U.S. government's official web portal to all federal, state and local government web resources and services.